This is the latest recevied weather packets stored in our database for station/object KB9GXK. If no packets are shown the sender has not sent any weather packets the latest 10 day(s).
| Time | Temp. | Humidity | Pressure | Rain* | Wind** | Luminosity | Snow |
|---|---|---|---|---|---|---|---|
| 1778162737 | 9.44° C | 48% | 1016 hPa | 0 mm | - | 413 W/m² | - |
| 1778162435 | 9.44° C | 48% | 1015.7 hPa | 0 mm | - | 421 W/m² | - |
| 1778162131 | 8.89° C | 47% | 1016.1 hPa | 0 mm | - | 391 W/m² | - |
| 1778161829 | 8.89° C | 51% | 1016.2 hPa | 0 mm | - | 337 W/m² | - |
| 1778161525 | 8.89° C | 51% | 1016.2 hPa | 0 mm | - | 207 W/m² | - |
| 1778161221 | 8.33° C | 52% | 1016 hPa | 0 mm | - | 391 W/m² | - |
| 1778160917 | 7.78° C | 54% | 1016.1 hPa | 0 mm | - | 141 W/m² | - |
| 1778160616 | 8.33° C | 52% | 1016.2 hPa | 0 mm | - | 174 W/m² | - |
| 1778160312 | 8.33° C | 52% | 1016.3 hPa | 0 mm | - | 197 W/m² | - |
| 1778160008 | 7.78° C | 54% | 1016.1 hPa | 0 mm | - | 224 W/m² | - |
| 1778159705 | 7.22° C | 56% | 1016.3 hPa | 0 mm | - | 301 W/m² | - |
| 1778159402 | 6.67° C | 57% | 1016.1 hPa | 0 mm | - | 134 W/m² | - |
| 1778159099 | 6.67° C | 58% | 1016 hPa | 0 mm | - | 159 W/m² | - |
| 1778158798 | 6.67° C | 59% | 1016.2 hPa | 0 mm | - | 218 W/m² | - |
| 1778158496 | 6.67° C | 58% | 1016.1 hPa | 0 mm | - | 185 W/m² | - |
| 1778158193 | 6.11° C | 58% | 1016.1 hPa | 0 mm | - | 101 W/m² | - |
| 1778157889 | 6.11° C | 58% | 1015.5 hPa | 0 mm | - | 96 W/m² | - |
| 1778157587 | 6.11° C | 60% | 1015.7 hPa | 0 mm | - | 121 W/m² | - |
| 1778157285 | 5.56° C | 62% | 1015.9 hPa | 0 mm | - | 135 W/m² | - |
| 1778156981 | 5.56° C | 62% | 1015.6 hPa | 0 mm | - | 71 W/m² | - |
| 1778156676 | 5° C | 63% | 1015.7 hPa | 0 mm | - | 125 W/m² | - |
| 1778156372 | 5° C | 65% | 1015.7 hPa | 0 mm | - | 75 W/m² | - |
| 1778156068 | 4.44° C | 65% | 1015.9 hPa | 0 mm | - | 90 W/m² | - |
| 1778155765 | 4.44° C | 66% | 1015.9 hPa | 0 mm | - | 63 W/m² | - |
| 1778155461 | 4.44° C | 66% | 1015.9 hPa | 0 mm | - | 90 W/m² | - |
* Rain latest hour (hover to see other rain measurements)
** Current wind speed in m/s (hover to see current wind gust speed)